User: anonymous
Location: Starry Hill Observatory
(46.8582°N, 122.3590°W)
Time: 10:12:20
(UTC-07:00)
Language:

Cosmos 1300 Rocket - Orbit

View from above orbital plane
View from above orbital plane
View from above satellite
View from above satellite

Ground track
Ground track

The orbit data is extracted from the following two-line orbital elements,

1 12786U 81082B   14207.25112625  .00000134  00000-0  13048-4 0  9348
2 12786 082.4864 243.5854 0019102 140.3713 266.1426 14.84135966778018
Epoch (UTC): 26 July 2014 06:01:37
Eccentricity: 0.0019102
inclination: 82.4864°
perigee height: 603 km
apogee height: 629 km
right ascension of ascending node: 243.5854°
argument of perigee: 140.3713°
revolutions per day: 14.84135966
mean anomaly at epoch: 266.1426°
orbit number at epoch: 77801

The dashed part of the orbit path shows where the satellite is in the earth's shadow,  

DLR